ONEWEB-0051, 45155

Orbit data source: Space-Track

ONEWEB-0051, 45155 is a payload satellite owned by One Web (UK) in LEO that was launched on Thu, 06 Feb 2020 UTC via a SOYUZ-2-1B launch vehicle from the Tyuratam Missile And Space Complex (TTMTR). Payload-class satellites include a variety of spacecraft equipped with specific instruments for various scientific and technological missions. These include communications satellites like Starlink; space stations such as the ISS; scientific satellites like the Hubble; Earth observation satellites from companies like Planet Labs, Umbra, and HawkEye 360; GPS; miniature CubeSats for education and research; and military/defense satellites.

Loading next visibility...
Identifier
45155, 2020-008AA
Orbit
LEO
Country
Flag of UKUK
Related business
Manufacturer
One Web
Mission
Operational Commercial Communications
Bus & Motor
ARROW, Unknown motor
Mass
148 kg wet, ~140 kg dry
Launch date (UTC)
Icon of a cake. It is the launch day of the satellite!2020-02-06 (6 years ago)
Launch vehicle
SOYUZ-2-1B
Launch site
Tyuratam Missile And Space Complex (TTMTR)
Object type
Payload
Rocket body
Debris
Shape & HBR
Trap Box + 2 Pan, 6.7 m
Radar Cross Section
3.464 m², Large (>1 m²)

Expand to show TLE details & history
Last TLE update: 12 hours ago

TLE from 12 hours ago
0 ONEWEB-0051
1 45155U 20008AA  26036.55003804  .00000498  00000-0  13705-2 0  9991
2 45155  87.8819  47.2572 0001881  87.5229 272.6114 13.11416889293831
Epoch: 2026-02-05T13:12Z
TLE epoch observation values (Epoch: 2026-02-05T13:12:03.286Z)
Latitude
-0.00006°
Longitude
73.54285°
Altitude
1,220.507 km
Speed
7.244 km/s
True Right ascension
03h 09m 01s
True Declination
0° 00' 00"
Sunlit
Object was in daylight at epoch
Visualization orbit readout
Latitude
Unknown
Longitude
Unknown
Altitude
Unknown
Speed
Unknown
Apparent Right ascension
Unknown
Apparent Declination
Unknown
Sunlit
N/A
Visualization observer readout
Local Sidereal Time
03:29:01
Azimuth
Unknown
Elevation
Unknown
Doppler factor
Unknown
Orbital elements
Apogee altitude
1,216.229 km
Perigee altitude
1,213.373 km
Semi-major axis
7,592.938 km
Eccentricity
0.00019
Inclination
87.8819°
RAAN
47.2572°
Arg. of periapsis
87.5229°
True anomaly
272.58987°
Mean anomaly
272.6114°
Eccentric anomaly
272.60063°
Mean motion
3.28041 °/min
Orbital period
109.74 mins
BSTAR
0.0013705
Loading maneuver chart data...
Computing Atmospheric mass density...
Loading historical data...
Loading historical data...
Loading historical data...
Loading historical data...
Loading historical data...
Loading historical data...
Loading historical data...

Documentation

Showing up to 5 results
|